Time,TemperatureF,DewpointF,PressureIn,WindDirection,WindDirectionDegrees,WindSpeedMPH,WindSpeedGustMPH,Humidity,HourlyPrecipIn,Conditions,Clouds,dailyrainin,SoftwareType,DateUTC
2013-01-21 00:10:00,21.3,9.0,30.81,West,279,6.0,19.0,60,0.00,,,0.00,weatherlink.com 1.10,2013-01-21 05:10:00,
2013-01-21 00:25:00,20.9,11.0,30.81,NNW,340,8.0,14.0,65,0.00,,,0.00,weatherlink.com 1.10,2013-01-21 05:25:00,
2013-01-21 00:40:00,20.6,11.0,30.81,WNW,301,4.0,12.0,66,0.00,,,0.00,weatherlink.com 1.10,2013-01-21 05:40:00,
2013-01-21 00:55:00,20.0,10.0,30.82,North,1,0.0,11.0,64,0.00,,,0.00,weatherlink.com 1.10,2013-01-21 05:55:00,
2013-01-21 01:11:00,19.3,7.0,30.83,NW,324,9.0,15.0,59,0.00,,,0.00,weatherlink.com 1.10,2013-01-21 06:11:00,
2013-01-21 01:26:00,18.8,7.0,30.84,ENE,60,2.0,17.0,60,0.00,,,0.00,weatherlink.com 1.10,2013-01-21 06:26:00,
2013-01-21 01:41:00,18.7,6.0,30.85,NW,326,9.0,14.0,58,0.00,,,0.00,weatherlink.com 1.10,2013-01-21 06:41:00,
2013-01-21 01:56:00,18.5,6.0,30.86,WNW,285,4.0,13.0,58,0.00,,,0.00,weatherlink.com 1.10,2013-01-21 06:56:00,
2013-01-21 02:11:00,18.4,5.0,30.86,NNW,331,7.0,17.0,55,0.00,,,0.00,weatherlink.com 1.10,2013-01-21 07:11:00,
2013-01-21 02:26:00,18.2,3.0,30.87,NNW,338,5.0,19.0,52,0.00,,,0.00,weatherlink.com 1.10,2013-01-21 07:26:00,
2013-01-21 02:41:00,17.6,2.0,30.87,WNW,284,9.0,16.0,51,0.00,,,0.00,weatherlink.com 1.10,2013-01-21 07:41:00,
2013-01-21 02:56:00,17.3,2.0,30.87,NNW,347,5.0,13.0,51,0.00,,,0.00,weatherlink.com 1.10,2013-01-21 07:56:00,
2013-01-21 03:11:00,17.0,2.0,30.87,NW,316,9.0,11.0,52,0.00,,,0.00,weatherlink.com 1.10,2013-01-21 08:11:00,
2013-01-21 03:26:00,16.8,2.0,30.88,NW,312,6.0,12.0,52,0.00,,,0.00,weatherlink.com 1.10,2013-01-21 08:26:00,
2013-01-21 03:41:00,16.6,2.0,30.88,NW,319,6.0,12.0,52,0.00,,,0.00,weatherlink.com 1.10,2013-01-21 08:41:00,
2013-01-21 04:11:00,16.1,2.0,30.89,NNW,333,7.0,11.0,53,0.00,,,0.00,weatherlink.com 1.10,2013-01-21 09:11:00,
2013-01-21 04:41:00,15.4,2.0,30.89,NW,311,2.0,8.0,55,0.00,,,0.00,weatherlink.com 1.10,2013-01-21 09:41:00,
2013-01-21 04:56:00,15.2,2.0,30.90,NE,34,0.0,5.0,57,0.00,,,0.00,weatherlink.com 1.10,2013-01-21 09:56:00,
2013-01-21 05:11:00,14.7,3.0,30.91,NW,325,0.0,5.0,60,0.00,,,0.00,weatherlink.com 1.10,2013-01-21 10:11:00,
2013-01-21 05:27:00,14.3,3.0,30.91,NNW,327,2.0,5.0,60,0.00,,,0.00,weatherlink.com 1.10,2013-01-21 10:27:00,
2013-01-21 05:42:00,13.8,4.0,30.91,NW,326,2.0,2.0,64,0.00,,,0.00,weatherlink.com 1.10,2013-01-21 10:42:00,
2013-01-21 05:57:00,13.6,4.0,30.92,WNW,290,2.0,4.0,66,0.00,,,0.00,weatherlink.com 1.10,2013-01-21 10:57:00,
2013-01-21 06:12:00,13.4,4.0,30.93,West,260,2.0,3.0,67,0.00,,,0.00,weatherlink.com 1.10,2013-01-21 11:12:00,
2013-01-21 06:28:00,13.3,5.0,30.93,WNW,301,0.0,3.0,68,0.00,,,0.00,weatherlink.com 1.10,2013-01-21 11:28:00,
2013-01-21 06:42:00,13.2,4.0,30.94,West,274,1.0,4.0,68,0.00,,,0.00,weatherlink.com 1.10,2013-01-21 11:42:00,
2013-01-21 06:57:00,13.2,4.0,30.95,SSE,150,0.0,5.0,68,0.00,,,0.00,weatherlink.com 1.10,2013-01-21 11:57:00,
2013-01-21 07:12:00,13.1,4.0,30.94,NW,312,0.0,4.0,68,0.00,,,0.00,weatherlink.com 1.10,2013-01-21 12:12:00,
2013-01-21 07:27:00,13.1,4.0,30.95,NNW,330,0.0,7.0,68,0.00,,,0.00,weatherlink.com 1.10,2013-01-21 12:27:00,
2013-01-21 07:42:00,13.0,4.0,30.94,North,8,0.0,5.0,67,0.00,,,0.00,weatherlink.com 1.10,2013-01-21 12:42:00,
2013-01-21 07:57:00,13.5,4.0,30.95,WNW,283,1.0,5.0,67,0.00,,,0.00,weatherlink.com 1.10,2013-01-21 12:57:00,
2013-01-21 08:12:00,13.9,4.0,30.95,NNW,338,3.0,4.0,65,0.00,,,0.00,weatherlink.com 1.10,2013-01-21 13:12:00,
2013-01-21 08:27:00,14.1,4.0,30.95,NW,310,1.0,4.0,65,0.00,,,0.00,weatherlink.com 1.10,2013-01-21 13:27:00,
2013-01-21 08:42:00,14.9,5.0,30.96,WNW,301,4.0,5.0,64,0.00,,,0.00,weatherlink.com 1.10,2013-01-21 13:42:00,
2013-01-21 08:57:00,16.0,5.0,30.97,WNW,283,3.0,4.0,63,0.00,,,0.00,weatherlink.com 1.10,2013-01-21 13:57:00,
2013-01-21 09:13:00,16.7,5.0,30.97,North,353,2.0,6.0,60,0.00,,,0.00,weatherlink.com 1.10,2013-01-21 14:13:00,
2013-01-21 09:20:00,16.7,4.8,30.97,NW,314,3.0,3.0,59,0.00,,,0.00,Wunderground v.1.15,2013-01-21 14:20:00,
2013-01-21 09:25:00,16.9,4.7,30.97,NW,322,3.0,8.0,58,0.00,,,0.00,Wunderground v.1.15,2013-01-21 14:25:00,
2013-01-21 09:30:00,17.0,5.1,30.98,NNW,330,4.0,4.0,59,0.00,,,0.00,Wunderground v.1.15,2013-01-21 14:30:00,
2013-01-21 09:35:00,17.0,4.7,30.98,NW,326,0.0,8.0,58,0.00,,,0.00,Wunderground v.1.15,2013-01-21 14:35:00,
2013-01-21 09:40:00,17.2,5.3,30.97,NW,323,8.0,8.0,59,0.00,,,0.00,Wunderground v.1.15,2013-01-21 14:40:00,
2013-01-21 09:45:00,17.2,4.9,30.98,NNW,340,3.0,9.0,58,0.00,,,0.00,Wunderground v.1.15,2013-01-21 14:45:00,
2013-01-21 09:50:00,17.3,5.4,30.98,NE,38,0.0,4.0,59,0.00,,,0.00,Wunderground v.1.15,2013-01-21 14:50:00,
2013-01-21 09:55:00,17.4,5.1,30.98,NNW,340,4.0,5.0,58,0.00,,,0.00,Wunderground v.1.15,2013-01-21 14:55:00,
2013-01-21 10:00:00,17.5,5.2,30.98,WNW,296,5.0,5.0,58,0.00,,,0.00,Wunderground v.1.15,2013-01-21 15:00:00,
2013-01-21 10:05:00,17.7,5.4,30.98,West,264,3.0,7.0,58,0.00,,,0.00,Wunderground v.1.15,2013-01-21 15:05:00,
2013-01-21 10:10:00,17.9,5.6,30.98,NW,305,4.0,4.0,58,0.00,,,0.00,Wunderground v.1.15,2013-01-21 15:10:00,
2013-01-21 10:15:00,18.1,5.8,30.98,WNW,293,3.0,6.0,58,0.00,,,0.00,Wunderground v.1.15,2013-01-21 15:15:00,
2013-01-21 10:20:00,18.4,6.1,30.98,NNE,19,1.0,2.0,58,0.00,,,0.00,Wunderground v.1.15,2013-01-21 15:20:00,
2013-01-21 10:26:00,18.5,5.0,30.98,West,276,2.0,7.0,57,0.00,,,0.00,weatherlink.com 1.10,2013-01-21 15:26:00,
2013-01-21 10:33:00,18.8,6.0,30.98,NNW,330,3.0,6.0,57,0.00,,,0.00,weatherlink.com 1.10,2013-01-21 15:33:00,
2013-01-21 10:48:00,19.5,6.0,30.97,WNW,302,1.0,9.0,56,0.00,,,0.00,weatherlink.com 1.10,2013-01-21 15:48:00,
2013-01-21 11:03:00,20.1,5.0,30.95,NNW,328,1.0,8.0,53,0.00,,,0.00,weatherlink.com 1.10,2013-01-21 16:03:00,
2013-01-21 11:18:00,20.1,6.0,30.95,NNW,340,0.0,7.0,55,0.00,,,0.00,weatherlink.com 1.10,2013-01-21 16:18:00,
2013-01-21 11:33:00,20.1,6.0,30.93,NW,322,2.0,7.0,54,0.00,,,0.00,weatherlink.com 1.10,2013-01-21 16:33:00,
2013-01-21 11:48:00,20.2,6.0,30.92,WNW,285,6.0,10.0,54,0.00,,,0.00,weatherlink.com 1.10,2013-01-21 16:48:00,
2013-01-21 12:03:00,20.1,6.0,30.92,NNW,347,4.0,6.0,55,0.00,,,0.00,weatherlink.com 1.10,2013-01-21 17:03:00,
2013-01-21 12:18:00,20.1,7.0,30.91,NNW,340,0.0,5.0,56,0.00,,,0.00,weatherlink.com 1.10,2013-01-21 17:18:00,
2013-01-21 12:33:00,20.4,6.0,30.90,SE,143,0.0,5.0,55,0.00,,,0.00,weatherlink.com 1.10,2013-01-21 17:33:00,
2013-01-21 12:48:00,20.7,7.0,30.90,NNW,329,1.0,6.0,55,0.00,,,0.00,weatherlink.com 1.10,2013-01-21 17:48:00,
2013-01-21 13:03:00,20.3,6.0,30.89,NNW,345,1.0,8.0,55,0.00,,,0.00,weatherlink.com 1.10,2013-01-21 18:03:00,
2013-01-21 13:18:00,20.3,6.0,30.89,SW,217,6.0,10.0,55,0.00,,,0.00,weatherlink.com 1.10,2013-01-21 18:18:00,
2013-01-21 13:33:00,20.9,7.0,30.88,WNW,292,3.0,8.0,56,0.00,,,0.00,weatherlink.com 1.10,2013-01-21 18:33:00,
2013-01-21 13:48:00,21.0,7.0,30.89,NNW,329,5.0,7.0,55,0.00,,,0.00,weatherlink.com 1.10,2013-01-21 18:48:00,
2013-01-21 14:03:00,21.1,8.0,30.88,WSW,248,5.0,7.0,57,0.00,,,0.00,weatherlink.com 1.10,2013-01-21 19:03:00,
2013-01-21 14:18:00,20.8,8.0,30.88,West,264,0.0,6.0,57,0.00,,,0.00,weatherlink.com 1.10,2013-01-21 19:18:00,
2013-01-21 14:33:00,20.9,8.0,30.88,West,278,0.0,3.0,57,0.00,,,0.00,weatherlink.com 1.10,2013-01-21 19:33:00,
2013-01-21 14:48:00,20.9,8.0,30.87,South,189,2.0,7.0,58,0.00,,,0.00,weatherlink.com 1.10,2013-01-21 19:48:00,
2013-01-21 15:00:00,20.9,9.2,30.87,NNW,328,2.0,2.0,60,0.00,,,0.00,Wunderground v.1.15,2013-01-21 20:00:00,
2013-01-21 15:05:00,20.9,8.4,30.87,SSW,200,2.0,4.0,58,0.00,,,0.00,Wunderground v.1.15,2013-01-21 20:05:00,
2013-01-21 15:10:00,20.9,8.8,30.86,SW,218,0.0,1.0,59,0.00,,,0.00,Wunderground v.1.15,2013-01-21 20:10:00,
2013-01-21 15:15:00,20.9,8.8,30.87,NW,312,0.0,3.0,59,0.00,,,0.00,Wunderground v.1.15,2013-01-21 20:15:00,
2013-01-21 15:20:00,20.9,8.8,30.87,North,352,0.0,1.0,59,0.00,,,0.00,Wunderground v.1.15,2013-01-21 20:20:00,
2013-01-21 15:25:00,21.0,8.9,30.87,SW,226,0.0,3.0,59,0.00,,,0.00,Wunderground v.1.15,2013-01-21 20:25:00,
2013-01-21 15:30:00,20.9,8.8,30.86,SW,235,3.0,3.0,59,0.00,,,0.00,Wunderground v.1.15,2013-01-21 20:30:00,
2013-01-21 15:35:00,20.8,9.1,30.86,South,170,0.0,6.0,60,0.00,,,0.00,Wunderground v.1.15,2013-01-21 20:35:00,
2013-01-21 15:40:00,20.8,8.7,30.85,South,173,0.0,1.0,59,0.00,,,0.00,Wunderground v.1.15,2013-01-21 20:40:00,
2013-01-21 15:45:00,20.8,8.7,30.85,WSW,256,3.0,5.0,59,0.00,,,0.00,Wunderground v.1.15,2013-01-21 20:45:00,
2013-01-21 15:50:00,20.7,9.4,30.85,WSW,253,2.0,2.0,61,0.00,,,0.00,Wunderground v.1.15,2013-01-21 20:50:00,
2013-01-21 15:55:00,20.6,8.9,30.85,SE,134,1.0,3.0,60,0.00,,,0.00,Wunderground v.1.15,2013-01-21 20:55:00,
2013-01-21 16:00:00,20.6,8.9,30.85,SW,232,0.0,1.0,60,0.00,,,0.00,Wunderground v.1.15,2013-01-21 21:00:00,
2013-01-21 16:05:00,20.6,8.9,30.85,ENE,75,0.0,4.0,60,0.00,,,0.00,Wunderground v.1.15,2013-01-21 21:05:00,
2013-01-21 16:10:00,20.6,9.3,30.85,ESE,109,1.0,1.0,61,0.00,,,0.00,Wunderground v.1.15,2013-01-21 21:10:00,
2013-01-21 16:15:00,20.6,9.3,30.86,WSW,245,0.0,2.0,61,0.00,,,0.00,Wunderground v.1.15,2013-01-21 21:15:00,
2013-01-21 16:20:00,20.5,9.2,30.85,SE,136,1.0,1.0,61,0.00,,,0.00,Wunderground v.1.15,2013-01-21 21:20:00,
2013-01-21 16:25:00,20.5,9.2,30.85,SW,222,2.0,3.0,61,0.00,,,0.00,Wunderground v.1.15,2013-01-21 21:25:00,
2013-01-21 16:30:00,20.4,9.8,30.85,SSW,203,0.0,2.0,63,0.00,,,0.00,Wunderground v.1.15,2013-01-21 21:30:00,
2013-01-21 16:35:00,20.3,10.1,30.86,WSW,256,0.0,3.0,64,0.00,,,0.00,Wunderground v.1.15,2013-01-21 21:35:00,
2013-01-21 16:40:00,20.3,10.4,30.86,WSW,242,0.0,1.0,65,0.00,,,0.00,Wunderground v.1.15,2013-01-21 21:40:00,
2013-01-21 16:45:00,20.2,10.6,30.85,West,269,0.0,3.0,66,0.00,,,0.00,Wunderground v.1.15,2013-01-21 21:45:00,
2013-01-21 16:50:00,19.9,11.0,30.85,SSE,166,1.0,4.0,68,0.00,,,0.00,Wunderground v.1.15,2013-01-21 21:50:00,
2013-01-21 16:55:00,19.8,11.9,30.85,East,91,0.0,4.0,71,0.00,,,0.00,Wunderground v.1.15,2013-01-21 21:55:00,
2013-01-21 17:00:00,19.6,12.0,30.85,ENE,64,2.0,2.0,72,0.00,,,0.00,Wunderground v.1.15,2013-01-21 22:00:00,
2013-01-21 17:05:00,19.4,12.2,30.85,SSW,200,1.0,3.0,73,0.00,,,0.00,Wunderground v.1.15,2013-01-21 22:05:00,
2013-01-21 17:10:00,19.3,12.4,30.85,SW,226,0.0,1.0,74,0.00,,,0.00,Wunderground v.1.15,2013-01-21 22:10:00,
2013-01-21 17:16:00,19.3,12.4,30.85,SW,228,0.0,3.0,74,0.00,,,0.00,Wunderground v.1.15,2013-01-21 22:16:00,
2013-01-21 17:20:00,19.2,12.6,30.85,WSW,256,0.0,1.0,75,0.00,,,0.00,Wunderground v.1.15,2013-01-21 22:20:00,
2013-01-21 17:25:00,19.1,12.5,30.84,SSE,165,3.0,4.0,75,0.00,,,0.00,Wunderground v.1.15,2013-01-21 22:25:00,
2013-01-21 17:30:00,19.0,12.7,30.85,East,91,1.0,1.0,76,0.00,,,0.00,Wunderground v.1.15,2013-01-21 22:30:00,
2013-01-21 17:35:00,19.0,12.7,30.85,East,91,1.0,4.0,76,0.00,,,0.00,Wunderground v.1.15,2013-01-21 22:35:00,
2013-01-21 17:40:00,19.0,13.0,30.85,WSW,249,1.0,1.0,77,0.00,,,0.00,Wunderground v.1.15,2013-01-21 22:40:00,
2013-01-21 17:45:00,19.0,13.0,30.85,SE,143,0.0,1.0,77,0.00,,,0.00,Wunderground v.1.15,2013-01-21 22:45:00,
2013-01-21 17:50:00,18.9,12.9,30.85,ESE,112,0.0,0.0,77,0.00,,,0.00,Wunderground v.1.15,2013-01-21 22:50:00,
2013-01-21 17:55:00,18.9,13.2,30.85,NW,316,0.0,2.0,78,0.00,,,0.00,Wunderground v.1.15,2013-01-21 22:55:00,
2013-01-21 18:00:00,18.8,13.4,30.85,SSW,207,1.0,2.0,79,0.00,,,0.00,Wunderground v.1.15,2013-01-21 23:00:00,
2013-01-21 18:05:00,18.8,13.7,30.85,West,264,0.0,2.0,80,0.00,,,0.00,Wunderground v.1.15,2013-01-21 23:05:00,
2013-01-21 18:10:00,18.6,14.0,30.85,SE,124,0.0,0.0,82,0.00,,,0.00,Wunderground v.1.15,2013-01-21 23:10:00,
2013-01-21 18:15:00,18.5,14.2,30.85,West,278,0.0,3.0,83,0.00,,,0.00,Wunderground v.1.15,2013-01-21 23:15:00,
2013-01-21 18:20:00,18.4,14.4,30.85,South,169,0.0,0.0,84,0.00,,,0.00,Wunderground v.1.15,2013-01-21 23:20:00,
2013-01-21 18:26:00,18.4,14.6,30.85,ESE,111,0.0,1.0,85,0.00,,,0.00,Wunderground v.1.15,2013-01-21 23:26:00,
2013-01-21 18:31:00,18.3,14.8,30.85,ESE,122,0.0,0.0,86,0.00,,,0.00,Wunderground v.1.15,2013-01-21 23:31:00,
2013-01-21 18:36:00,18.2,15.0,30.85,SE,126,0.0,0.0,87,0.00,,,0.00,Wunderground v.1.15,2013-01-21 23:36:00,
2013-01-21 18:41:00,18.2,15.0,30.85,SE,126,0.0,0.0,87,0.00,,,0.00,Wunderground v.1.15,2013-01-21 23:41:00,
2013-01-21 18:46:00,18.1,15.1,30.85,SE,127,0.0,2.0,88,0.00,,,0.00,Wunderground v.1.15,2013-01-21 23:46:00,
2013-01-21 18:51:00,18.1,15.4,30.85,SSW,207,1.0,1.0,89,0.00,,,0.00,Wunderground v.1.15,2013-01-21 23:51:00,
2013-01-21 18:56:00,18.1,15.4,30.85,WSW,246,0.0,1.0,89,0.00,,,0.00,Wunderground v.1.15,2013-01-21 23:56:00,
2013-01-21 19:01:00,18.1,15.4,30.85,WSW,246,0.0,0.0,89,0.00,,,0.00,Wunderground v.1.15,2013-01-22 00:01:00,
2013-01-21 19:06:00,18.2,15.5,30.85,South,181,0.0,0.0,89,0.00,,,0.00,Wunderground v.1.15,2013-01-22 00:06:00,
2013-01-21 19:11:00,18.1,15.4,30.84,SSE,161,0.0,0.0,89,0.00,,,0.00,Wunderground v.1.15,2013-01-22 00:11:00,
2013-01-21 19:16:00,18.1,15.4,30.84,SSE,150,0.0,0.0,89,0.00,,,0.00,Wunderground v.1.15,2013-01-22 00:16:00,
2013-01-21 19:21:00,18.0,15.6,30.84,East,98,0.0,0.0,90,0.00,,,0.00,Wunderground v.1.15,2013-01-22 00:21:00,
2013-01-21 19:26:00,18.0,15.6,30.84,ESE,118,0.0,1.0,90,0.00,,,0.00,Wunderground v.1.15,2013-01-22 00:26:00,
2013-01-21 19:31:00,17.9,15.5,30.84,SE,143,0.0,0.0,90,0.00,,,0.00,Wunderground v.1.15,2013-01-22 00:31:00,
2013-01-21 19:36:00,17.9,15.5,30.84,SE,143,0.0,0.0,90,0.00,,,0.00,Wunderground v.1.15,2013-01-22 00:36:00,
2013-01-21 19:41:00,17.9,15.5,30.84,SE,141,0.0,0.0,90,0.00,,,0.00,Wunderground v.1.15,2013-01-22 00:41:00,
2013-01-21 19:46:00,17.9,15.5,30.84,SE,141,0.0,0.0,90,0.00,,,0.00,Wunderground v.1.15,2013-01-22 00:46:00,
2013-01-21 19:51:00,17.9,15.5,30.83,SE,141,0.0,0.0,90,0.00,,,0.00,Wunderground v.1.15,2013-01-22 00:51:00,
2013-01-21 19:56:00,18.0,15.6,30.83,SE,141,0.0,0.0,90,0.00,,,0.00,Wunderground v.1.15,2013-01-22 00:56:00,
2013-01-21 20:01:00,17.9,15.5,30.83,SE,141,0.0,0.0,90,0.00,,,0.00,Wunderground v.1.15,2013-01-22 01:01:00,
2013-01-21 20:06:00,18.0,15.6,30.83,SE,141,0.0,0.0,90,0.00,,,0.00,Wunderground v.1.15,2013-01-22 01:06:00,
2013-01-21 20:11:00,17.9,15.5,30.83,SE,141,0.0,0.0,90,0.00,,,0.00,Wunderground v.1.15,2013-01-22 01:11:00,
2013-01-21 20:16:00,17.8,15.4,30.83,SE,141,0.0,0.0,90,0.00,,,0.00,Wunderground v.1.15,2013-01-22 01:16:00,
2013-01-21 20:21:00,17.7,15.3,30.83,SE,141,0.0,0.0,90,0.00,,,0.00,Wunderground v.1.15,2013-01-22 01:21:00,
2013-01-21 20:26:00,17.6,15.2,30.83,SE,141,0.0,0.0,90,0.00,,,0.00,Wunderground v.1.15,2013-01-22 01:26:00,
2013-01-21 20:31:00,17.5,15.1,30.83,SE,141,0.0,0.0,90,0.00,,,0.00,Wunderground v.1.15,2013-01-22 01:31:00,
2013-01-21 20:36:00,17.4,15.0,30.83,SE,141,0.0,0.0,90,0.00,,,0.00,Wunderground v.1.15,2013-01-22 01:36:00,
2013-01-21 20:45:00,17.2,15.0,30.83,SE,141,0.0,0.0,91,0.00,,,0.00,weatherlink.com 1.10,2013-01-22 01:45:00,
2013-01-21 21:00:00,16.7,15.0,30.82,SE,141,0.0,0.0,91,0.00,,,0.00,weatherlink.com 1.10,2013-01-22 02:00:00,
2013-01-21 21:15:00,15.9,14.0,30.81,SE,141,0.0,0.0,91,0.00,,,0.00,weatherlink.com 1.10,2013-01-22 02:15:00,
2013-01-21 21:30:00,15.0,13.0,30.80,SE,141,0.0,0.0,91,0.00,,,0.00,weatherlink.com 1.10,2013-01-22 02:30:00,
2013-01-21 21:45:00,13.9,12.0,30.78,SE,141,0.0,0.0,91,0.00,,,0.00,weatherlink.com 1.10,2013-01-22 02:45:00,
2013-01-21 22:00:00,13.4,12.0,30.78,SE,141,0.0,0.0,92,0.00,,,0.00,weatherlink.com 1.10,2013-01-22 03:00:00,
2013-01-21 22:15:00,12.8,11.0,30.78,SE,142,0.0,0.0,91,0.00,,,0.00,weatherlink.com 1.10,2013-01-22 03:15:00,
2013-01-21 22:30:00,12.1,10.0,30.77,SE,126,0.0,0.0,91,0.00,,,0.00,weatherlink.com 1.10,2013-01-22 03:30:00,
2013-01-21 22:45:00,12.7,11.0,30.75,SE,127,0.0,1.0,92,0.00,,,0.00,weatherlink.com 1.10,2013-01-22 03:45:00,
2013-01-21 23:00:00,12.9,11.0,30.76,SSE,161,0.0,0.0,93,0.00,,,0.00,weatherlink.com 1.10,2013-01-22 04:00:00,
2013-01-21 23:15:00,13.3,11.0,30.75,NNW,334,0.0,1.0,92,0.00,,,0.00,weatherlink.com 1.10,2013-01-22 04:15:00,
2013-01-21 23:30:00,13.9,12.0,30.74,NNW,327,0.0,2.0,92,0.00,,,0.00,weatherlink.com 1.10,2013-01-22 04:30:00,
2013-01-21 23:46:00,14.2,12.0,30.73,NNE,13,0.0,1.0,92,0.00,,,0.00,weatherlink.com 1.10,2013-01-22 04:46:00,